Theta_e
310 310 310 310 310 310 310 311 311 310 310 310 310 310 311 311 310 304 300 298 297 292 293 294 295 291 291 289 284 286 284 285 285 282 282 281 283 284 282 284 284 283 283 282 284 284 282 306 307 304 306 312 315 315
309 309 309 310 310 310 310 310 310 310 311 311 311 311 311 311 310 309 298 300 302 295 293 297 296 297 296 294 290 290 289 285 290 285 286 286 284 286 283 280 289 284 289 288 288 287 298 308 309 312 313 314 315 315
309 309 309 309 309 310 310 310 310 310 311 311 311 311 312 311 311 309 301 301 299 294 290 289 290 296 298 298 299 289 291 292 291 291 286 287 285 288 280 283 288 291 294 292 294 298 303 308 312 313 316 315 316 317
308 309 309 309 309 309 309 310 310 310 310 311 311 311 312 312 311 310 302 302 299 294 286 287 295 292 295 296 296 296 295 294 295 296 290 288 286 291 286 288 287 290 291 291 293 299 306 310 310 311 315 317 316 317
308 309 309 308 309 309 310 310 310 310 310 311 311 311 311 312 311 309 305 302 302 293 286 289 294 295 295 293 294 295 294 292 290 290 290 289 292 290 291 290 287 291 289 288 289 299 304 306 310 313 315 315 317 316
308 308 308 308 309 309 309 310 310 310 310 310 311 311 311 311 310 302 294 300 303 301 292 287 291 294 298 296 293 292 292 292 292 290 290 293 297 290 286 286 293 296 298 300 298 306 308 311 313 315 315 315 316 317
308 308 308 308 309 309 309 309 309 309 309 310 310 310 310 310 306 298 294 301 304 302 292 287 289 293 296 294 296 293 294 292 292 291 290 290 291 293 286 284 292 296 297 300 307 309 309 311 310 313 314 317 319 319
308 308 308 308 309 309 309 309 309 309 309 310 309 310 310 310 307 302 304 306 305 297 294 287 288 289 296 293 292 295 290 292 294 292 295 293 294 292 284 290 294 297 296 300 307 312 312 313 312 312 314 314 314 315
308 308 308 308 308 308 309 309 309 309 310 310 310 310 305 304 300 301 309 308 305 296 287 288 286 285 295 294 296 297 299 293 298 293 295 294 290 285 291 297 301 302 298 299 311 311 311 310 311 311 312 311 310 311
307 307 308 308 308 308 308 309 309 309 309 309 301 296 295 300 310 308 302 295 294 294 291 285 290 288 293 297 297 296 298 293 289 293 297 291 289 297 301 304 305 308 310 309 306 306 308 308 309 310 311 313 312 312
307 307 308 308 308 308 308 309 309 309 306 298 294 292 300 307 305 300 291 288 286 285 286 287 289 289 298 291 293 297 291 290 285 290 291 288 288 296 304 306 309 310 310 309 310 311 309 310 309 311 311 313 314 314
308 308 307 308 308 308 309 309 309 306 299 301 302 305 302 298 298 295 292 290 288 288 291 290 292 291 295 301 294 295 287 289 286 296 289 285 296 302 305 306 309 311 312 312 313 313 313 314 313 313 312 313 314 315
307 307 307 308 308 309 309 309 309 309 306 302 297 295 297 296 291 291 288 292 295 300 299 299 298 299 299 300 296 296 293 291 298 288 285 294 301 303 302 303 303 304 305 310 313 313 312 311 312 312 313 315 317 316
306 308 308 308 308 309 309 309 309 306 301 296 295 288 293 293 294 295 294 295 300 301 300 299 299 298 300 295 296 293 295 294 288 285 289 296 299 300 300 300 300 300 301 303 305 308 308 306 305 306 310 312 314 313
308 308 308 307 308 309 309 308 309 303 300 296 296 288 292 298 299 299 300 299 300 302 299 298 296 296 295 295 296 293 290 285 287 290 295 300 302 301 299 299 298 298 299 298 301 302 306 306 304 303 305 307 307 306
308 307 304 308 308 309 308 306 306 303 300 300 298 294 297 294 295 296 295 294 299 300 301 300 296 293 293 295 293 291 287 286 293 298 301 303 303 301 299 298 297 298 298 298 299 299 299 300 301 302 303 303 303 302
307 300 307 307 308 308 308 304 303 301 300 299 295 296 294 293 293 294 296 295 297 298 295 296 291 292 296 291 289 292 290 293 297 297 297 299 298 297 298 296 296 296 295 296 296 297 298 300 300 300 299 300 300 300
299 301 307 308 307 304 305 302 301 301 296 296 293 295 295 295 294 296 297 298 293 292 294 291 293 290 289 287 287 291 294 296 299 296 294 295 296 296 296 294 295 295 294 295 296 296 296 296 296 297 298 299 298 298
302 305 307 308 308 302 301 301 301 295 296 296 296 296 295 296 297 298 299 299 298 293 292 290 289 287 288 291 291 290 292 292 293 296 294 293 293 293 294 294 294 293 293 293 293 294 296 296 295 296 296 297 295 295
307 308 309 310 308 300 298 297 299 296 294 296 296 296 294 294 295 296 298 298 295 292 289 287 288 290 292 290 289 288 289 290 292 292 290 291 292 292 291 291 291 291 292 292 291 292 292 293 294 296 296 295 293 292
306 308 310 308 305 301 298 296 296 296 295 295 296 295 295 295 294 293 293 295 293 291 289 293 292 292 292 291 289 288 288 288 288 288 289 288 290 291 292 292 292 291 290 289 288 289 290 288 289 291 295 293 292 292
302 308 305 308 303 301 299 299 297 297 297 297 296 297 297 296 293 293 293 295 296 295 294 293 292 290 289 288 288 287 288 290 289 289 290 289 287 288 288 289 290 289 288 288 288 287 288 288 290 292 293 293 292 291
306 305 304 305 300 295 295 301 298 297 295 295 295 293 294 298 298 296 290 290 293 295 294 293 292 289 287 288 288 288 287 287 286 286 287 287 286 286 287 287 288 288 287 287 287 287 287 289 290 290 291 290 290 289
306 302 300 298 297 293 300 297 298 297 297 295 292 289 291 295 301 291 288 290 292 293 293 292 289 287 286 287 285 284 285 285 285 285 285 286 285 285 286 286 287 287 287 287 287 287 288 289 289 289 289 289 288 287
295 297 297 289 296 296 296 296 296 295 293 294 292 291 291 297 293 288 287 290 292 294 294 291 288 287 285 284 284 284 285 284 284 284 284 285 285 285 285 285 286 286 287 287 287 288 288 288 289 289 289 289 288 287
290 296 294 296 294 295 294 293 294 294 294 294 293 293 293 290 289 287 288 291 292 294 295 294 288 285 284 284 283 284 284 284 284 284 284 283 284 284 284 283 284 285 287 287 287 288 288 288 288 287 287 288 288 287
290 294 296 299 298 297 295 296 296 292 291 291 292 293 291 287 286 289 293 294 294 297 296 294 290 287 285 284 284 284 284 283 284 285 284 284 284 285 285 284 284 285 287 288 289 289 288 288 287 287 286 286 287 287
297 297 296 298 298 299 296 294 293 291 291 293 293 290 289 289 287 292 295 297 296 291 287 286 286 287 285 285 285 285 285 284 284 284 283 285 285 285 285 286 286 288 287 289 289 289 289 288 288 287 286 286 286 287
298 299 300 297 299 299 299 295 293 293 294 294 292 290 291 293 295 296 297 295 292 288 287 286 285 285 284 284 284 284 283 283 284 282 281 281 282 284 285 286 286 286 286 287 288 290 289 288 288 287 287 287 287 288
300 302 298 298 298 295 298 298 296 296 295 296 296 295 296 296 298 298 294 289 288 288 288 287 285 285 284 284 284 284 284 284 283 283 282 282 283 284 285 285 286 286 286 287 287 288 289 289 288 288 288 288 288 288
303 302 300 300 299 299 300 299 298 299 297 297 297 295 295 296 298 296 291 289 289 287 287 286 285 285 285 284 283 283 283 285 284 285 285 285 284 285 285 286 286 286 287 287 287 287 287 287 287 287 287 287 287 287
301 301 300 298 297 299 299 297 297 297 297 297 296 297 297 296 295 297 293 289 288 288 289 288 286 286 287 287 287 286 287 286 286 286 287 286 286 286 285 285 286 287 288 288 288 287 288 287 287 287 287 287 287 287
297 297 298 299 296 297 298 298 296 296 296 294 295 297 299 297 295 297 294 292 291 290 289 288 288 288 289 290 289 288 288 287 288 287 288 288 288 287 286 286 286 287 288 288 288 288 288 288 287 287 287 287 286 287
Wind_Speed
15 15 17 18 19 20 21 21 21 22 23 23 23 22 21 20 17 3 4 6 4 4 8 12 13 11 9 6 4 2 5 2 1 1 3 4 4 3 4 5 6 9 8 7 7 7 20 2 6 4 4 8 12 17
16 16 18 19 19 20 22 23 22 22 23 24 24 23 22 21 18 12 3 3 4 4 7 11 15 17 20 19 8 5 4 2 1 1 2 2 3 3 4 5 4 9 10 5 11 8 7 4 8 7 7 12 11 16
18 18 18 21 21 21 23 23 24 24 25 24 24 24 23 20 19 13 4 3 2 4 7 5 10 12 11 19 14 7 4 5 5 5 4 4 8 3 4 6 5 6 5 7 10 9 9 8 5 5 7 6 11 12
19 20 19 20 22 22 25 25 25 26 26 26 25 24 23 20 17 13 3 4 3 1 4 8 2 6 4 8 14 19 15 1 3 5 5 4 4 5 3 6 5 7 10 7 9 17 3 5 2 3 8 6 7 3
19 20 21 21 23 24 26 26 26 27 27 27 26 23 23 20 13 6 3 5 6 5 4 9 13 6 4 9 12 14 14 13 5 3 4 3 3 4 5 7 13 7 11 7 11 10 5 2 3 4 4 3 7 5
19 21 22 22 23 25 27 28 28 28 28 27 27 23 20 14 6 2 3 0 5 3 2 4 4 4 1 6 9 11 10 6 5 3 4 4 2 4 6 8 11 12 13 15 16 8 4 5 0 2 3 6 6 6
21 23 24 23 23 26 28 27 29 30 29 28 27 23 17 10 4 4 4 3 8 4 2 4 4 5 4 4 4 3 8 4 4 3 5 5 7 9 5 14 28 17 20 18 12 13 4 2 3 3 1 7 5 8
22 23 25 25 24 24 28 28 29 30 31 29 27 17 6 8 5 2 3 11 9 3 1 3 5 4 3 3 1 4 5 3 5 4 4 4 3 5 8 14 24 26 22 15 15 8 4 8 6 7 7 8 13 10
24 23 24 25 25 25 26 28 28 30 30 28 15 7 4 3 1 1 5 15 3 3 1 2 3 4 5 3 3 2 3 3 3 4 3 3 2 5 14 19 19 9 11 7 12 12 10 10 12 12 14 16 15 13
23 24 24 24 25 25 25 27 27 28 29 16 3 3 3 1 4 13 2 2 3 1 1 3 2 4 2 3 3 3 2 2 3 2 4 2 4 15 11 13 13 9 12 15 14 9 10 14 10 13 13 14 9 2
23 24 24 24 24 24 24 25 26 26 9 5 5 3 3 7 2 1 3 2 1 2 2 3 4 3 2 3 2 2 3 4 3 4 6 5 6 12 11 11 14 14 17 16 16 12 9 11 8 11 10 7 4 4
22 22 24 24 24 24 25 23 21 8 1 1 3 3 2 2 1 3 3 1 3 3 4 3 4 4 3 2 2 2 2 2 4 6 4 5 10 17 20 21 20 18 16 17 17 9 7 9 10 7 6 5 6 3
22 22 23 23 23 23 24 22 20 13 2 2 1 1 3 5 7 8 9 5 5 4 1 4 2 2 2 1 2 2 4 5 3 5 5 7 14 18 20 20 23 23 23 20 15 14 15 14 15 12 10 8 10 11
22 21 22 21 22 20 23 23 18 2 2 5 6 9 6 6 7 4 8 7 7 6 7 2 1 2 2 4 3 5 4 4 5 6 11 12 14 14 16 15 16 16 16 17 17 18 19 19 19 19 15 11 12 12
21 22 22 13 15 23 23 19 9 3 4 5 7 8 6 5 5 6 6 5 7 6 3 3 3 3 4 4 4 5 7 6 6 7 9 9 12 9 10 12 14 17 18 16 13 12 14 17 15 15 14 13 13 15
21 17 3 12 23 25 20 7 3 2 5 6 8 6 7 4 12 12 11 10 11 7 2 4 5 6 8 5 7 9 5 8 6 6 6 5 10 11 9 9 9 11 13 13 14 15 16 14 11 11 15 15 15 16
14 3 11 22 25 22 12 4 5 6 5 6 4 2 3 3 4 5 7 9 7 8 5 4 8 8 4 7 8 7 6 6 8 8 7 8 7 8 9 13 13 13 13 13 14 13 11 11 14 16 17 13 15 16
2 6 20 22 17 7 4 5 5 6 6 3 4 6 4 2 6 7 8 10 7 4 4 5 5 9 6 7 5 5 4 5 4 6 7 7 9 9 8 10 11 11 12 13 12 12 14 14 12 8 9 9 11 13
8 12 21 19 6 3 4 6 5 4 2 1 3 3 2 3 4 4 9 10 8 3 4 5 7 4 2 2 4 5 5 4 3 5 6 9 10 9 9 10 11 12 12 12 11 8 7 10 7 6 6 8 8 7
10 10 9 1 1 3 4 4 3 4 2 2 0 3 2 0 4 4 8 9 5 4 9 6 3 2 2 3 3 4 4 5 3 2 6 8 7 9 10 8 6 6 8 9 10 12 8 9 8 8 7 8 9 8
7 5 8 1 3 4 3 1 3 1 2 2 1 1 0 3 4 5 5 5 5 4 4 3 2 2 4 3 2 2 1 4 4 2 2 4 5 4 6 7 7 7 7 6 6 7 9 5 5 5 7 7 7 7
3 7 3 3 3 4 3 1 2 1 2 1 2 2 2 2 3 3 2 5 4 2 1 1 2 2 3 4 4 4 5 3 6 4 8 6 5 5 4 4 4 5 6 5 5 5 5 5 5 5 7 6 8 8
5 4 3 4 2 5 3 1 3 2 2 1 2 3 3 2 1 1 4 2 2 2 1 0 1 1 2 4 3 6 7 6 5 5 5 4 4 4 4 5 4 4 4 4 3 3 4 6 7 7 7 7 7 7
2 3 3 3 2 2 3 3 2 2 2 3 2 2 2 2 2 4 1 3 3 3 3 2 0 2 4 4 4 4 4 3 2 3 4 4 3 4 3 3 3 3 2 3 3 4 4 5 5 6 6 7 7 6
3 5 4 5 1 4 4 6 4 3 2 1 2 1 1 2 2 2 1 4 3 3 2 0 1 2 2 2 3 2 3 3 3 3 4 3 3 3 4 4 4 3 3 4 4 4 4 4 5 5 5 5 6 7
3 2 3 1 2 2 2 3 3 3 2 2 2 1 2 3 2 1 3 3 3 3 3 3 4 2 0 2 1 1 3 3 2 3 3 4 3 3 2 4 4 4 4 2 1 3 4 4 5 6 5 6 6 5
1 1 1 0 2 1 1 1 1 2 2 2 0 1 1 2 1 3 3 3 3 3 3 2 4 4 4 3 1 1 2 2 1 2 0 3 3 3 2 3 4 5 6 4 1 2 4 4 3 4 4 4 4 3
3 3 2 1 0 1 1 1 1 1 2 2 2 1 3 4 4 4 5 3 3 2 3 3 3 4 4 2 1 2 3 4 2 1 2 2 3 3 4 3 2 8 3 4 3 3 3 3 3 4 5 5 4 4
3 3 3 1 2 2 4 4 4 4 4 4 4 4 4 4 3 3 2 2 3 4 3 3 3 3 4 3 3 3 3 3 4 4 3 3 4 4 5 5 5 4 4 3 6 4 4 4 4 4 5 3 2 3
3 4 3 2 3 5 5 5 4 3 2 3 3 1 1 2 3 2 2 3 4 4 4 3 4 4 3 3 2 2 2 1 0 2 1 2 3 3 4 5 5 5 4 2 3 3 5 4 4 3 4 4 4 4
4 3 1 3 4 3 2 3 2 3 2 2 1 3 3 2 2 1 3 3 3 4 4 3 3 3 4 3 3 3 3 3 4 5 4 2 2 2 3 4 4 4 4 4 4 3 2 3 2 3 4 5 6 5
4 6 4 3 3 2 1 2 3 2 2 2 3 1 1 1 2 3 3 4 4 3 3 4 4 4 4 3 3 4 5 2 4 4 5 3 3 2 1 2 3 3 4 4 4 3 3 3 3 3 3 5 6 6
1 2 2 2 1 2 2 3 3 1 1 2 4 4 4 5 5 2 0 2 3 4 5 5 4 3 3 2 3 3 4 3 5 5 5 5 6 5 3 2 0 2 4 3 3 3 4 4 4 5 6 6 6 6
Wind_Direction
318 321 319 320 319 316 314 312 313 312 311 309 307 304 303 300 292 262 250 186 200 254 257 248 245 248 255 222 234 290 348 342 23 181 221 244 237 253 292 247 202 179 173 194 207 235 237 31 311 205 331 313 303 299
313 317 314 314 314 312 310 309 309 308 306 306 305 302 298 293 294 277 227 189 198 227 265 273 253 243 237 237 245 212 241 313 288 195 247 295 282 255 244 275 221 231 219 205 199 213 235 164 212 262 280 284 301 290
309 313 313 310 311 309 306 307 308 308 306 306 304 304 296 287 285 279 207 181 185 270 282 249 239 242 228 229 218 235 221 212 231 204 205 227 248 245 227 244 259 252 251 238 276 261 223 216 256 258 288 282 301 282
309 311 310 308 308 309 306 306 309 308 308 307 306 305 298 285 276 271 210 172 160 222 278 282 305 256 220 191 199 213 225 246 230 196 229 227 248 222 251 279 279 247 327 270 286 257 255 192 251 289 294 8 309 310
306 307 308 309 307 307 306 307 310 308 310 309 307 309 298 290 276 275 224 196 181 161 267 298 306 283 207 163 190 200 210 225 239 276 251 240 234 241 226 244 247 192 235 209 232 243 204 232 302 300 290 31 314 6
302 303 304 307 308 307 307 309 311 310 310 309 310 309 298 289 253 85 321 145 187 153 271 284 294 291 271 169 192 189 198 204 211 214 231 231 184 191 252 249 247 220 223 240 257 278 219 150 266 339 272 50 21 28
302 302 302 306 307 308 308 311 312 310 311 313 317 315 298 259 155 159 200 175 160 129 242 285 279 275 299 175 168 156 180 196 195 221 234 237 231 213 241 256 272 258 260 246 233 243 197 203 190 351 34 69 82 51
300 299 302 305 309 310 308 311 310 312 313 317 328 329 21 137 114 236 179 151 147 117 226 282 279 326 324 289 231 171 151 208 212 235 223 239 220 211 255 253 260 255 229 247 255 195 165 147 121 69 66 46 64 52
300 303 305 307 311 312 310 309 313 311 313 321 325 130 77 59 102 23 147 150 53 90 261 269 302 309 349 276 256 253 181 232 211 239 241 315 263 243 267 289 322 73 182 220 128 115 122 114 95 78 62 54 43 33
304 306 308 311 312 312 311 313 313 314 318 326 88 60 52 302 118 122 73 77 17 175 68 250 294 268 321 304 309 318 355 313 280 286 285 257 260 263 325 332 344 17 103 94 94 108 105 78 83 79 73 61 53 350
309 309 311 311 310 311 312 312 315 326 339 29 27 34 255 323 204 202 115 133 188 259 241 245 228 271 211 271 306 360 359 348 308 307 347 323 325 334 358 338 343 75 77 87 96 52 45 71 74 77 75 98 104 45
310 312 314 309 310 313 309 310 320 327 207 286 286 290 302 342 296 350 1 175 210 268 192 236 234 212 264 237 357 11 351 284 339 332 355 359 359 351 10 23 31 42 57 56 63 50 66 70 77 91 89 72 74 98
320 318 313 311 314 311 306 321 324 304 310 109 99 36 28 346 18 7 352 325 329 316 242 244 223 251 223 212 255 269 349 13 330 19 2 1 8 10 18 22 26 28 32 41 61 68 61 58 57 54 60 57 78 65
322 313 312 314 312 311 321 327 327 348 66 56 19 12 36 7 1 333 327 306 288 296 314 286 34 6 345 29 342 360 11 17 18 21 31 17 14 22 25 22 29 30 33 40 43 42 43 47 44 37 34 38 65 62
318 316 314 302 320 326 330 325 323 27 64 52 39 18 10 318 289 311 292 279 337 318 340 357 26 60 359 50 20 14 11 22 7 27 55 4 356 7 32 40 35 35 39 41 46 44 53 54 48 39 40 47 52 50
323 321 303 324 331 333 331 326 29 54 42 53 38 354 316 345 358 7 358 345 343 343 5 21 20 24 33 15 6 18 17 23 12 348 6 345 356 8 22 32 26 38 40 51 33 27 28 34 41 51 47 45 52 59
326 268 326 332 335 329 333 45 23 46 55 36 340 309 281 278 297 315 342 346 331 14 17 50 44 12 358 22 11 5 12 343 330 343 352 6 6 353 8 28 24 30 36 36 39 33 32 28 42 38 39 30 48 47
254 306 324 327 338 326 354 34 62 62 56 7 13 314 334 292 345 358 344 359 21 15 16 58 64 28 36 8 344 315 314 306 323 11 3 5 8 13 32 41 38 35 29 27 36 40 35 33 36 30 32 35 45 40
273 299 304 313 326 16 32 8 55 87 98 205 297 326 351 305 347 351 14 5 7 33 68 44 60 28 9 294 284 310 322 341 331 341 16 22 20 22 27 41 43 37 38 37 37 38 44 50 42 34 34 49 60 41
302 291 299 329 27 48 47 359 58 98 137 203 178 0 76 298 300 357 25 11 3 25 33 47 52 313 295 276 254 272 295 304 312 20 26 14 8 21 23 30 28 19 46 41 43 37 32 33 22 24 39 48 56 39
345 333 336 6 27 64 105 68 34 133 139 145 208 98 147 358 19 9 6 339 29 43 40 22 344 308 307 278 273 253 2 24 18 20 317 351 340 19 28 29 37 47 53 39 36 20 34 31 349 5 41 44 43 44
286 340 349 357 49 5 71 344 141 217 92 158 46 67 45 22 3 353 300 24 34 341 46 93 300 311 347 357 323 356 325 19 33 26 24 10 17 10 10 359 25 37 31 18 17 12 1 4 8 39 54 48 53 52
335 18 1 19 24 34 275 54 51 20 73 359 27 42 5 11 353 69 55 306 291 313 329 87 112 328 26 334 34 24 20 15 29 15 9 9 17 11 17 18 14 48 47 13 351 27 28 11 34 48 48 49 51 52
3 37 39 32 61 292 346 6 37 66 65 62 64 58 7 326 357 60 64 282 266 309 21 355 149 35 351 9 25 354 341 354 17 28 9 15 23 10 1 4 7 15 3 311 26 40 38 46 53 63 60 63 54 54
48 333 68 334 9 21 4 348 351 33 62 113 99 23 319 338 69 64 274 276 301 307 305 144 127 112 119 297 306 326 359 39 34 31 357 350 347 9 9 356 360 4 350 25 20 47 40 50 53 57 56 60 65 55
79 332 97 4 334 42 342 350 346 340 353 83 52 312 33 74 68 267 244 243 245 253 269 260 178 119 44 228 237 335 320 343 24 49 350 0 23 51 12 6 344 326 6 333 321 77 68 53 55 57 50 46 49 52
83 261 298 83 131 130 12 310 280 63 45 46 107 64 59 31 293 250 270 228 232 255 259 254 168 165 171 182 251 323 338 360 62 131 311 13 32 34 36 13 337 297 311 314 47 104 108 96 73 55 50 41 35 36
211 155 180 212 306 175 197 172 141 204 221 201 90 134 179 198 234 227 211 231 238 121 66 37 60 122 130 146 120 9 6 3 23 45 305 344 20 19 3 334 298 334 3 24 42 70 85 86 73 63 63 61 41 24
213 197 137 214 189 216 228 191 205 219 179 150 159 197 232 225 225 205 216 185 150 129 121 112 64 84 77 72 60 46 32 19 38 41 32 349 340 330 348 337 338 346 354 6 17 41 92 98 91 82 71 51 12 1
240 156 148 200 190 221 234 171 201 161 158 166 139 97 319 266 244 189 140 140 157 193 195 173 149 145 161 168 205 286 296 281 191 157 185 300 272 307 321 333 343 343 343 16 58 63 49 62 52 48 42 28 16 8
130 145 210 203 236 249 223 141 93 109 123 136 165 162 217 281 310 278 191 176 136 125 128 133 166 202 185 210 202 207 263 245 229 238 227 238 269 300 325 335 337 345 9 39 54 55 67 62 59 42 27 10 360 0
166 187 180 224 277 346 109 101 148 158 187 161 215 134 84 55 278 273 194 123 123 157 193 159 180 222 213 243 247 219 206 247 214 222 219 207 237 241 281 328 341 7 28 35 39 42 44 47 40 28 358 348 343 340
161 146 141 132 98 227 225 120 179 251 202 229 236 200 183 173 225 254 352 200 168 185 192 196 195 162 175 243 291 274 229 216 228 255 264 255 248 252 233 193 283 40 52 45 29 25 27 24 10 354 343 337 331 326